Location: Santa Cristina
(46.5667°N, 11.7167°E)
Time: 05:52:33
(UTC+00:00)

Helios 1B rocket - Pass Details

Date: 21 April 2021
Orbit: 574 x 582 km, 98.2° (Epoch: 05 May)

Event Time Altitude Azimuth Distance (km) Brightness Sun altitude
Rises 01:09:26 0° 10° (N) 2,809 7.0 -25.9°
Reaches altitude 10° 01:11:36 10° 7° (N) 1,906 5.9 -25.7°
Enters shadow 01:14:56 52° 336° (NNW) 732 3.0 -25.4°
